Content
SEND FEEDBACK

Daily
Averages
Monthly
Summary
United States of America

INARAJAN, GUAM


Home > North America > United States > Guam
Elevation: 280 feet     Latitude: 13 18N     Longitude: 144 44E

WEATHER
 
SELECT A DAY
Number of Records: 341,524;   Date Range: 1/1/95 - 7/7/14
 
SHARE

PRINT THIS DATA

[ ← Previous Day ]
WEATHER ALMANAC - MARCH 12, 2013
[ Next Day → ]
[ °C ]   °F
Weather ElementAverageHighLow
Temperature75.5 °F78.8 °F (8:35 am)73.4 °F (1:25 am)
Dewpoint73.9 °F75.4 °F (12:55 pm)71.6 °F (1:25 am)
Humidity94.7 %100 % (9:16 am)83 % (2:00 pm)
Barometer29.82 in29.87 in (9:29 am)29.77 in (3:25 pm)
Wind Speed15.6 mph23 mph (11:47 am)
Wind Gust28.8 mph (12:26 pm)
Weather ElementAverage
Visibility7.3 mi
Wind DirectionNE (49.1 °)

Weather ElementTotal
Precipitation---
Cooling Degree Days11.1 (Base 65)
Growing Degree Days26.1 (Base 50)
Averaged from 260 records on March 12, 2013
WEATHER CONDITIONS BREAKOUT
WIND DIRECTION BREAKOUT
WEATHER BY HOUR - MARCH 12, 2013
[ °C ]   °F
Local TimeTemperatureDewpointHumidityBarometerVisibilityWind DirectionWind SpeedGust SpeedPrecipitationEventsConditions
12:13 AM75.2 °F73.4 °F94 %29.84 in10.0 miENE (70°)9.2 mphMostly Cloudy
12:22 AM75.2 °F73.4 °F94 %29.84 in10.0 miENE (60°)10.4 mphMostly Cloudy
12:33 AM75.2 °F73.4 °F94 %29.83 in10.0 miENE (60°)9.2 mphMostly Cloudy
12:35 AM75.2 °F73.4 °F94 %29.83 in10.0 miENE (60°)9.2 mphMostly Cloudy
12:45 AM75.2 °F73.4 °F94 %29.83 in10.0 miENE (60°)15.0 mphMostly Cloudy
12:55 AM76.3 °F73.8 °F92 %29.83 in10.0 miNE (50°)13.8 mph0.00 inMostly Cloudy
12:59 AM75.2 °F73.4 °F94 %29.83 in6.0 miENE (60°)17.3 mph23.0 mphRainRain
1:06 AM75.2 °F73.4 °F94 %29.83 in4.0 miNE (50°)12.7 mph23.0 mphRainLight Rain
1:10 AM75.2 °F73.4 °F94 %29.83 in6.0 miNE (40°)11.5 mphLight Drizzle
1:12 AM75.2 °F73.4 °F94 %29.83 in7.0 miNE (40°)15.0 mphLight Drizzle
1:16 AM75.2 °F73.4 °F94 %29.83 in6.0 miNE (50°)12.7 mphRainRain
1:17 AM75.2 °F73.4 °F94 %29.83 in6.0 miENE (60°)12.7 mphRainRain
1:19 AM75.2 °F73.4 °F94 %29.83 in5.0 miENE (60°)15.0 mphRainLight Rain
1:25 AM73.4 °F71.6 °F94 %29.83 in5.0 miENE (60°)15.0 mphLight Drizzle
1:37 AM75.2 °F73.4 °F94 %29.82 in10.0 miNE (50°)15.0 mphMostly Cloudy
1:47 AM75.2 °F73.4 °F94 %29.81 in10.0 miNE (50°)12.7 mphMostly Cloudy
1:55 AM75.4 °F73.9 °F95 %29.81 in10.0 miNE (40°)13.8 mph0.00 inMostly Cloudy
2:05 AM75.2 °F73.4 °F94 %29.81 in10.0 miNE (40°)16.1 mphMostly Cloudy
2:10 AM75.2 °F73.4 °F94 %29.81 in10.0 miENE (70°)12.7 mphLight Drizzle
2:19 AM73.4 °F71.6 °F94 %29.81 in4.0 miENE (70°)15.0 mph21.9 mphRainLight Rain
2:28 AM73.4 °F71.6 °F94 %29.81 in10.0 miNE (50°)10.4 mphOvercast
2:31 AM73.4 °F71.6 °F94 %29.80 in10.0 miNE (50°)13.8 mphMostly Cloudy
2:43 AM75.2 °F73.4 °F94 %29.80 in10.0 miNE (50°)12.7 mphMostly Cloudy
2:55 AM75.2 °F73.8 °F95 %29.80 in10.0 miNE (50°)11.5 mph0.00 inMostly Cloudy
2:59 AM75.2 °F73.4 °F94 %29.79 in10.0 miNE (50°)11.5 mphMostly Cloudy
3:06 AM75.2 °F73.4 °F94 %29.79 in10.0 miNE (50°)13.8 mph21.9 mphMostly Cloudy
3:16 AM75.2 °F73.4 °F94 %29.79 in10.0 miENE (70°)19.6 mph26.5 mphMostly Cloudy
3:18 AM75.2 °F73.4 °F94 %29.79 in10.0 miENE (70°)18.4 mphMostly Cloudy
3:19 AM75.2 °F73.4 °F94 %29.79 in10.0 miENE (70°)18.4 mphMostly Cloudy
3:33 AM75.2 °F73.4 °F94 %29.79 in10.0 miENE (70°)11.5 mphOvercast
3:37 AM75.2 °F71.6 °F89 %29.79 in10.0 miENE (70°)12.7 mphOvercast
3:38 AM75.2 °F71.6 °F89 %29.79 in10.0 miENE (70°)12.7 mphOvercast
3:40 AM75.2 °F71.6 °F89 %29.79 in10.0 miEast (80°)12.7 mphOvercast
3:55 AM75.0 °F72.7 °F92 %29.79 in10.0 miENE (60°)11.5 mphMostly Cloudy
4:29 AM75.2 °F73.4 °F94 %29.80 in10.0 miNE (50°)12.7 mphMostly Cloudy
4:41 AM75.2 °F73.4 °F94 %29.80 in10.0 miNE (40°)13.8 mphMostly Cloudy
4:44 AM75.2 °F73.4 °F94 %29.80 in9.0 miENE (60°)15.0 mphLight Drizzle
4:46 AM75.2 °F73.4 °F94 %29.80 in8.0 miENE (60°)13.8 mphLight Drizzle
4:47 AM75.2 °F73.4 °F94 %29.80 in8.0 miENE (60°)15.0 mphLight Drizzle
4:49 AM75.2 °F73.4 °F94 %29.80 in8.0 miENE (60°)13.8 mphLight Drizzle
4:54 AM75.2 °F73.4 °F94 %29.80 in8.0 miENE (60°)16.1 mphLight Drizzle
4:56 AM75.2 °F73.4 °F94 %29.80 in10.0 miNE (50°)13.8 mphOvercast
4:58 AM75.2 °F73.4 °F94 %29.80 in10.0 miNE (50°)13.8 mphOvercast
5:00 AM75.2 °F73.4 °F94 %29.80 in10.0 miNE (50°)15.0 mphOvercast
5:04 AM75.2 °F73.4 °F94 %29.80 in10.0 miNE (50°)15.0 mphOvercast
5:14 AM75.2 °F73.4 °F94 %29.80 in10.0 miNE (50°)13.8 mphOvercast
5:15 AM75.2 °F73.4 °F94 %29.80 in10.0 miNE (50°)15.0 mphOvercast
5:26 AM75.2 °F73.4 °F94 %29.80 in10.0 miENE (60°)12.7 mphOvercast
5:27 AM75.2 °F73.4 °F94 %29.80 in10.0 miENE (60°)11.5 mphOvercast
5:33 AM75.2 °F73.4 °F94 %29.80 in10.0 miENE (70°)10.4 mphMostly Cloudy
5:35 AM75.2 °F73.4 °F94 %29.80 in10.0 miENE (60°)11.5 mphMostly Cloudy
5:36 AM75.2 °F73.4 °F94 %29.80 in10.0 miENE (70°)11.5 mphMostly Cloudy
5:40 AM75.2 °F73.4 °F94 %29.80 in10.0 miENE (70°)13.8 mphMostly Cloudy
5:42 AM75.2 °F73.4 °F94 %29.80 in10.0 miENE (60°)11.5 mphMostly Cloudy
5:50 AM75.2 °F73.4 °F94 %29.80 in10.0 miENE (60°)11.5 mphScattered Clouds
5:55 AM75.4 °F72.7 °F91 %29.81 in10.0 miENE (60°)13.8 mphScattered Clouds
6:07 AM75.2 °F71.6 °F89 %29.81 in10.0 miENE (60°)13.8 mphMostly Cloudy
6:08 AM75.2 °F71.6 °F89 %29.81 in10.0 miENE (60°)12.7 mphScattered Clouds
6:11 AM75.2 °F73.4 °F94 %29.81 in10.0 miENE (70°)18.4 mph23.0 mphMostly Cloudy
6:13 AM75.2 °F73.4 °F94 %29.81 in8.0 miEast (80°)17.3 mph23.0 mphRainLight Rain
6:23 AM75.2 °F73.4 °F94 %29.81 in9.0 miENE (70°)13.8 mphMostly Cloudy
6:25 AM75.2 °F73.4 °F94 %29.81 in10.0 miENE (60°)13.8 mphMostly Cloudy
6:28 AM75.2 °F73.4 °F94 %29.82 in10.0 miNE (50°)17.3 mphOvercast
6:33 AM75.2 °F73.4 °F94 %29.82 in10.0 miENE (60°)15.0 mphLight Drizzle
6:44 AM75.2 °F73.4 °F94 %29.82 in10.0 miEast (80°)11.5 mphMostly Cloudy
6:49 AM75.2 °F73.4 °F94 %29.82 in10.0 miEast (80°)11.5 mphMostly Cloudy
6:51 AM75.2 °F73.4 °F94 %29.82 in10.0 miEast (80°)13.8 mphScattered Clouds
6:55 AM75.6 °F73.0 °F92 %29.82 in10.0 miEast (80°)11.5 mph0.00 inScattered Clouds
7:55 AM77.9 °F73.6 °F86 %29.84 in10.0 miENE (60°)12.7 mphMostly Cloudy
8:05 AM77.0 °F73.4 °F89 %29.84 in10.0 miENE (70°)13.8 mphMostly Cloudy
8:35 AM78.8 °F75.2 °F89 %29.86 in10.0 miNNE (30°)13.8 mphMostly Cloudy
8:37 AM78.8 °F75.2 °F89 %29.86 in10.0 miNNE (30°)15.0 mphMostly Cloudy
8:38 AM78.8 °F75.2 °F89 %29.86 in10.0 miNNE (30°)15.0 mphMostly Cloudy
8:47 AM77.0 °F75.2 °F94 %29.86 in10.0 miNE (40°)13.8 mphOvercast
8:55 AM77.5 °F75.2 °F92 %29.86 in10.0 miNE (40°)13.8 mphMostly Cloudy
9:07 AM77.0 °F75.2 °F94 %29.86 in4.0 miNE (40°)17.3 mph24.2 mphRainHeavy Rain
9:09 AM77.0 °F75.2 °F94 %29.86 in2.5 miNNE (20°)15.0 mph24.2 mphRainHeavy Rain
9:13 AM77.0 °F75.2 °F94 %29.86 in2.0 miNE (40°)20.7 mphRainHeavy Rain
9:16 AM75.2 °F75.2 °F100 %29.86 in2.5 miNE (40°)19.6 mph24.2 mphRainHeavy Rain
9:17 AM75.2 °F75.2 °F100 %29.86 in2.5 miNE (40°)18.4 mph24.2 mphRainHeavy Rain
9:18 AM75.2 °F75.2 °F100 %29.86 in3.0 miNE (40°)17.3 mph24.2 mphRainHeavy Rain
9:19 AM75.2 °F75.2 °F100 %29.86 in3.0 miNE (50°)16.1 mph24.2 mphRainHeavy Rain
9:29 AM77.0 °F75.2 °F94 %29.87 in8.0 miNE (50°)17.3 mphRainLight Rain
9:30 AM77.0 °F75.2 °F94 %29.87 in8.0 miNE (50°)16.1 mphOvercast
9:33 AM77.0 °F75.2 °F94 %29.87 in9.0 miNE (40°)17.3 mphLight Drizzle
9:34 AM77.0 °F75.2 °F94 %29.87 in9.0 miNE (40°)17.3 mphOvercast
9:42 AM75.2 °F75.2 °F100 %29.87 in10.0 miNE (40°)13.8 mphOvercast
9:46 AM75.2 °F75.2 °F100 %29.87 in9.0 miNE (50°)11.5 mphDrizzle
9:53 AM75.2 °F75.2 °F100 %29.87 in7.0 miNE (50°)12.7 mphOvercast
9:55 AM76.3 °F75.2 °F96 %29.87 in8.0 miNE (50°)12.7 mph0.00 inOvercast
10:01 AM77.0 °F75.2 °F94 %29.87 in10.0 miNE (40°)16.1 mphOvercast
10:02 AM77.0 °F75.2 °F94 %29.87 in10.0 miNE (40°)15.0 mphMostly Cloudy
10:08 AM77.0 °F75.2 °F94 %29.87 in9.0 miNE (40°)16.1 mphOvercast
10:10 AM77.0 °F75.2 °F94 %29.86 in9.0 miNNE (30°)13.8 mphOvercast
10:11 AM77.0 °F75.2 °F94 %29.86 in9.0 miNE (40°)12.7 mphLight Drizzle
10:12 AM77.0 °F75.2 °F94 %29.86 in9.0 miNNE (30°)13.8 mphLight Drizzle
10:15 AM77.0 °F75.2 °F94 %29.86 in8.0 miNNE (30°)16.1 mph20.7 mphLight Drizzle
10:17 AM77.0 °F75.2 °F94 %29.87 in8.0 miNE (40°)18.4 mphLight Drizzle
10:22 AM75.2 °F75.2 °F100 %29.87 in7.0 miNNE (30°)17.3 mphRainLight Rain
10:33 AM75.2 °F75.2 °F100 %29.86 in9.0 miNE (40°)16.1 mphRainLight Rain
10:41 AM75.2 °F73.4 °F94 %29.86 in2.5 miNE (50°)16.1 mphRainLight Rain
10:44 AM75.2 °F75.2 °F100 %29.86 in2.0 miNE (50°)19.6 mphRainLight Rain
10:45 AM75.2 °F75.2 °F100 %29.86 in2.5 miNE (40°)19.6 mphRainLight Rain
10:51 AM75.2 °F75.2 °F100 %29.86 in3.0 miNE (50°)19.6 mphRainLight Rain
10:55 AM75.2 °F74.1 °F96 %29.86 in3.0 miNE (50°)20.7 mph0.00 inRainRain
11:32 AM75.2 °F75.2 °F100 %29.85 in3.0 miNE (50°)13.8 mphRainLight Rain
11:37 AM75.2 °F75.2 °F100 %29.85 in7.0 miNE (50°)18.4 mph23.0 mphRainLight Rain
11:38 AM77.0 °F75.2 °F94 %29.85 in7.0 miNE (50°)17.3 mph23.0 mphOvercast
11:40 AM77.0 °F75.2 °F94 %29.85 in5.0 miNE (50°)17.3 mph23.0 mphRainLight Rain
11:47 AM75.2 °F73.4 °F94 %29.85 in3.0 miNE (40°)23.0 mphLight Drizzle
11:50 AM75.2 °F73.4 °F94 %29.85 in3.0 miNE (40°)21.9 mph25.3 mphRainRain
11:51 AM75.2 °F73.4 °F94 %29.85 in3.0 miNE (40°)20.7 mph25.3 mphRainLight Rain
11:55 AM75.4 °F74.1 °F96 %29.84 in3.0 miNE (50°)18.4 mph25.3 mph0.00 inRainLight Rain
11:57 AM75.2 °F73.4 °F94 %29.84 in3.0 miNE (40°)16.1 mphRainLight Rain
12:02 PM75.2 °F75.2 °F100 %29.84 in5.0 miNNE (30°)15.0 mphLight Drizzle
12:08 PM75.2 °F75.2 °F100 %29.84 in10.0 miNE (40°)17.3 mphLight Drizzle
12:10 PM75.2 °F75.2 °F100 %29.84 in10.0 miNE (40°)17.3 mphOvercast
12:17 PM77.0 °F75.2 °F94 %29.84 in10.0 miNE (40°)16.1 mphOvercast
12:21 PM77.0 °F75.2 °F94 %29.84 in10.0 miNE (50°)19.6 mphOvercast
12:23 PM77.0 °F75.2 °F94 %29.84 in8.0 miNE (40°)20.7 mphRainLight Rain
12:26 PM75.2 °F73.4 °F94 %29.83 in5.0 miNE (40°)23.0 mph28.8 mphRainHeavy Rain
12:42 PM75.2 °F75.2 °F100 %29.83 in7.0 miNNE (30°)17.3 mphOvercast
12:55 PM76.6 °F75.4 °F96 %29.82 in10.0 miNE (40°)20.7 mph0.00 inOvercast
1:08 PM77.0 °F75.2 °F94 %29.81 in10.0 miNNE (30°)17.3 mphMostly Cloudy
1:23 PM78.8 °F75.2 °F89 %29.81 in10.0 miNE (50°)19.6 mphMostly Cloudy
1:28 PM78.8 °F75.2 °F89 %29.81 in10.0 miNE (50°)21.9 mphMostly Cloudy
1:29 PM78.8 °F75.2 °F89 %29.81 in10.0 miNE (50°)21.9 mphMostly Cloudy
1:55 PM78.3 °F73.8 °F86 %29.80 in10.0 miNNE (30°)16.1 mphOvercast
2:00 PM78.8 °F73.4 °F83 %29.80 in10.0 miNE (40°)17.3 mphMostly Cloudy
2:02 PM77.0 °F73.4 °F89 %29.80 in10.0 miNE (40°)18.4 mphOvercast
2:04 PM77.0 °F73.4 °F89 %29.79 in10.0 miNE (40°)16.1 mphOvercast
2:06 PM77.0 °F75.2 °F94 %29.79 in9.0 miNNE (30°)15.0 mphLight Drizzle
2:10 PM77.0 °F75.2 °F94 %29.79 in9.0 miNE (40°)13.8 mphLight Drizzle
2:12 PM77.0 °F75.2 °F94 %29.79 in9.0 miNE (40°)13.8 mphLight Drizzle
2:13 PM77.0 °F75.2 °F94 %29.79 in9.0 miNE (40°)13.8 mphLight Drizzle
2:17 PM77.0 °F75.2 °F94 %29.79 in10.0 miNE (40°)15.0 mphOvercast
2:21 PM77.0 °F75.2 °F94 %29.79 in10.0 miNE (40°)13.8 mphOvercast
2:22 PM77.0 °F75.2 °F94 %29.79 in8.0 miNE (40°)16.1 mph21.9 mphRainLight Rain
2:31 PM77.0 °F75.2 °F94 %29.79 in2.5 miENE (60°)19.6 mph27.6 mphRainLight Rain
2:32 PM77.0 °F75.2 °F94 %29.79 in2.5 miENE (70°)17.3 mph27.6 mphRainLight Rain
2:33 PM77.0 °F75.2 °F94 %29.79 in2.0 miENE (70°)16.1 mph27.6 mphRainLight Rain
2:44 PM75.2 °F73.4 °F94 %29.79 in2.5 miENE (70°)17.3 mphLight Drizzle
2:48 PM75.2 °F73.4 °F94 %29.78 in2.5 miENE (70°)15.0 mphLight Drizzle
2:49 PM75.2 °F73.4 °F94 %29.78 in3.0 miEast (80°)15.0 mphLight Drizzle
2:53 PM75.2 °F73.4 °F94 %29.78 in5.0 miENE (70°)12.7 mphOvercast
2:55 PM75.9 °F74.5 °F95 %29.78 in6.0 miENE (70°)12.7 mph0.00 inLight Drizzle
3:04 PM75.2 °F75.2 °F100 %29.78 in5.0 miNE (40°)15.0 mph19.6 mphLight Drizzle
3:05 PM75.2 °F75.2 °F100 %29.78 in5.0 miNE (40°)13.8 mph19.6 mphLight Drizzle
3:06 PM75.2 °F73.4 °F94 %29.78 in4.0 miNE (50°)11.5 mphRainRain
3:07 PM75.2 °F73.4 °F94 %29.78 in4.0 miNE (50°)12.7 mphRainRain
3:09 PM75.2 °F73.4 °F94 %29.78 in3.0 miNE (50°)16.1 mphRainRain
3:11 PM75.2 °F73.4 °F94 %29.78 in3.0 miNE (40°)19.6 mphRainLight Rain
3:12 PM75.2 °F75.2 °F100 %29.78 in3.0 miNE (50°)18.4 mphRainLight Rain
3:13 PM75.2 °F75.2 °F100 %29.78 in2.5 miNE (50°)18.4 mphRainLight Rain
3:16 PM75.2 °F75.2 °F100 %29.78 in3.0 miNE (40°)17.3 mphRainRain
3:22 PM75.2 °F75.2 °F100 %29.78 in3.0 miNE (40°)16.1 mphRainLight Rain
3:24 PM75.2 °F75.2 °F100 %29.78 in4.0 miNE (40°)16.1 mphRainHeavy Rain
3:25 PM75.2 °F75.2 °F100 %29.77 in4.0 miNE (40°)16.1 mphRainLight Rain
3:30 PM75.2 °F73.4 °F94 %29.78 in5.0 miNE (40°)19.6 mph26.5 mphRainLight Rain
3:37 PM75.2 °F73.4 °F94 %29.78 in10.0 miNE (50°)19.6 mph25.3 mphOvercast
3:43 PM75.2 °F73.4 °F94 %29.78 in7.0 miNE (40°)19.6 mph25.3 mphOvercast
3:45 PM75.2 °F73.4 °F94 %29.78 in7.0 miNE (40°)16.1 mphOvercast
3:46 PM75.2 °F73.4 °F94 %29.78 in6.0 miNE (40°)16.1 mph25.3 mphOvercast
3:50 PM75.2 °F75.2 °F100 %29.78 in6.0 miNE (40°)17.3 mphOvercast
3:52 PM75.2 °F75.2 °F100 %29.78 in7.0 miNE (40°)16.1 mphOvercast
3:55 PM76.5 °F75.2 °F96 %29.78 in9.0 miNE (40°)15.0 mph0.00 inMostly Cloudy
4:02 PM77.0 °F75.2 °F94 %29.78 in10.0 miNE (40°)13.8 mphOvercast
4:05 PM77.0 °F75.2 °F94 %29.78 in10.0 miNE (40°)13.8 mphOvercast
4:16 PM77.0 °F75.2 °F94 %29.78 in10.0 miNE (40°)19.6 mphOvercast
4:19 PM77.0 °F73.4 °F89 %29.78 in10.0 miNNE (30°)17.3 mphOvercast
4:22 PM77.0 °F73.4 °F89 %29.78 in10.0 miNE (40°)18.4 mphOvercast
4:23 PM77.0 °F73.4 °F89 %29.78 in10.0 miNE (40°)18.4 mphOvercast
4:29 PM77.0 °F73.4 °F89 %29.78 in10.0 miNE (40°)16.1 mphOvercast
4:30 PM77.0 °F73.4 °F89 %29.78 in10.0 miNE (40°)16.1 mphOvercast
4:33 PM77.0 °F73.4 °F89 %29.78 in10.0 miNNE (30°)17.3 mphOvercast
4:42 PM77.0 °F73.4 °F89 %29.79 in10.0 miNNE (30°)15.0 mphOvercast
4:45 PM77.0 °F73.4 °F89 %29.79 in10.0 miNNE (30°)17.3 mphOvercast
4:47 PM77.0 °F73.4 °F89 %29.79 in10.0 miNE (40°)15.0 mphOvercast
4:49 PM77.0 °F73.4 °F89 %29.79 in10.0 miNNE (30°)15.0 mphOvercast
4:55 PM76.5 °F73.9 °F92 %29.79 in10.0 miNNE (30°)13.8 mphOvercast
4:56 PM77.0 °F73.4 °F89 %29.79 in10.0 miNNE (30°)12.7 mphOvercast
5:05 PM77.0 °F73.4 °F89 %29.79 in10.0 miNNE (30°)12.7 mphOvercast
5:12 PM77.0 °F75.2 °F94 %29.80 in5.0 miNNE (30°)15.0 mphRainLight Rain
5:15 PM77.0 °F75.2 °F94 %29.80 in2.5 miNE (40°)15.0 mphRainHeavy Rain
5:16 PM77.0 °F75.2 °F94 %29.79 in2.5 miNE (40°)16.1 mphRainHeavy Rain
5:18 PM75.2 °F75.2 °F100 %29.80 in2.5 miNE (40°)17.3 mphRainHeavy Rain
5:21 PM75.2 °F75.2 °F100 %29.80 in3.0 miNE (40°)17.3 mphRainLight Rain
5:24 PM75.2 °F75.2 °F100 %29.80 in7.0 miNE (40°)17.3 mphOvercast
5:45 PM75.2 °F73.4 °F94 %29.80 in10.0 miNNE (30°)16.1 mphOvercast
5:54 PM75.2 °F73.4 °F94 %29.80 in10.0 miNE (40°)16.1 mphOvercast
5:55 PM75.6 °F73.6 °F94 %29.80 in10.0 miNE (40°)17.3 mph0.00 inOvercast
6:14 PM75.2 °F73.4 °F94 %29.80 in10.0 miNNE (30°)17.3 mphOvercast
6:41 PM75.2 °F73.4 °F94 %29.81 in10.0 miNNE (30°)16.1 mphOvercast
6:48 PM75.2 °F73.4 °F94 %29.81 in10.0 miNE (40°)15.0 mphOvercast
6:51 PM75.2 °F73.4 °F94 %29.81 in8.0 miNE (40°)19.6 mphRainLight Rain
6:55 PM75.2 °F73.8 °F95 %29.81 in7.0 miNE (40°)20.7 mph0.00 inRainLight Rain
6:59 PM75.2 °F73.4 °F94 %29.81 in7.0 miNE (40°)19.6 mphRainLight Rain
7:11 PM73.4 °F73.4 °F100 %29.82 in6.0 miENE (60°)17.3 mphRainLight Rain
7:20 PM75.2 °F73.4 °F94 %29.82 in10.0 miENE (70°)16.1 mphOvercast
7:22 PM75.2 °F73.4 °F94 %29.82 in8.0 miENE (70°)16.1 mphOvercast
7:24 PM75.2 °F73.4 °F94 %29.82 in5.0 miEast (80°)11.5 mphRainLight Rain
7:30 PM73.4 °F73.4 °F100 %29.82 in2.5 miENE (70°)11.5 mphRainRain
7:33 PM73.4 °F71.6 °F94 %29.82 in2.5 miENE (70°)10.4 mphRainLight Rain
7:34 PM73.4 °F73.4 °F100 %29.82 in3.0 miEast (80°)9.2 mphRainLight Rain
7:38 PM73.4 °F73.4 °F100 %29.83 in4.0 miNE (50°)11.5 mphLight Drizzle
7:42 PM75.2 °F73.4 °F94 %29.83 in7.0 miNE (40°)13.8 mph19.6 mphLight Drizzle
7:54 PM75.2 °F73.4 °F94 %29.83 in10.0 miNE (40°)13.8 mphOvercast
7:55 PM75.0 °F73.6 °F95 %29.83 in10.0 miNE (40°)15.0 mph0.00 inOvercast
8:02 PM75.2 °F73.4 °F94 %29.83 in10.0 miNE (40°)16.1 mphRainLight Rain
8:09 PM75.2 °F73.4 °F94 %29.83 in10.0 miNE (40°)12.7 mphRainLight Rain
8:13 PM75.2 °F73.4 °F94 %29.83 in10.0 miNE (40°)15.0 mphRainLight Rain
8:22 PM75.2 °F73.4 °F94 %29.84 in10.0 miNE (40°)15.0 mphOvercast
8:38 PM75.2 °F73.4 °F94 %29.85 in10.0 miNE (50°)12.7 mphOvercast
8:44 PM75.2 °F73.4 °F94 %29.85 in10.0 miNE (40°)15.0 mphOvercast
8:55 PM75.2 °F73.0 °F93 %29.85 in10.0 miNE (40°)16.1 mph0.00 inOvercast
9:00 PM75.2 °F73.4 °F94 %29.85 in9.0 miNE (50°)16.1 mphOvercast
9:01 PM75.2 °F73.4 °F94 %29.85 in7.0 miNE (50°)18.4 mphRainLight Rain
9:02 PM75.2 °F73.4 °F94 %29.85 in6.0 miENE (60°)18.4 mphRainLight Rain
9:03 PM75.2 °F73.4 °F94 %29.85 in4.0 miENE (60°)19.6 mphRainLight Rain
9:04 PM75.2 °F73.4 °F94 %29.85 in4.0 miENE (60°)19.6 mphRainLight Rain
9:06 PM75.2 °F73.4 °F94 %29.85 in2.5 miENE (60°)18.4 mphRainHeavy Rain
9:07 PM75.2 °F73.4 °F94 %29.85 in2.0 miENE (60°)20.7 mphRainHeavy Rain
9:09 PM75.2 °F73.4 °F94 %29.86 in1.8 miNE (50°)21.9 mphRainHeavy Rain
9:11 PM75.2 °F73.4 °F94 %29.86 in1.8 miNE (40°)20.7 mph26.5 mphRainHeavy Rain
9:13 PM73.4 °F73.4 °F100 %29.86 in2.0 miNE (40°)18.4 mph26.5 mphRainHeavy Rain
9:15 PM73.4 °F73.4 °F100 %29.86 in2.5 miNE (40°)18.4 mph26.5 mphRainHeavy Rain
9:17 PM73.4 °F73.4 °F100 %29.86 in3.0 miNNE (30°)18.4 mph26.5 mphRainRain
9:21 PM73.4 °F73.4 °F100 %29.86 in5.0 miNNE (30°)16.1 mphRainLight Rain
9:22 PM73.4 °F73.4 °F100 %29.86 in6.0 miNNE (30°)17.3 mphRainLight Rain
9:23 PM73.4 °F73.4 °F100 %29.86 in7.0 miNNE (30°)18.4 mphRainLight Rain
9:27 PM73.4 °F73.4 °F100 %29.86 in10.0 miNE (40°)15.0 mph24.2 mphRainLight Rain
9:31 PM73.4 °F73.4 °F100 %29.86 in5.0 miNE (50°)19.6 mph24.2 mphRainLight Rain
9:33 PM73.4 °F71.6 °F94 %29.86 in5.0 miNE (50°)19.6 mph24.2 mphRainLight Rain
9:38 PM73.4 °F73.4 °F100 %29.86 in5.0 miNE (40°)17.3 mphRainLight Rain
9:41 PM73.4 °F73.4 °F100 %29.86 in8.0 miNE (40°)17.3 mphOvercast
9:52 PM75.2 °F73.4 °F94 %29.86 in9.0 miNE (40°)16.1 mphOvercast
9:55 PM74.5 °F72.7 °F94 %29.86 in10.0 miNE (40°)15.0 mph0.00 inOvercast
10:15 PM75.2 °F73.4 °F94 %29.87 in10.0 miNE (50°)13.8 mphOvercast
10:18 PM75.2 °F73.4 °F94 %29.86 in10.0 miNE (50°)13.8 mphOvercast
10:19 PM75.2 °F73.4 °F94 %29.86 in10.0 miNE (50°)13.8 mphOvercast
10:20 PM75.2 °F73.4 °F94 %29.87 in8.0 miNE (50°)15.0 mphOvercast
10:21 PM75.2 °F73.4 °F94 %29.87 in7.0 miENE (60°)16.1 mphRainLight Rain
10:22 PM75.2 °F73.4 °F94 %29.87 in5.0 miENE (60°)17.3 mphRainRain
10:24 PM75.2 °F73.4 °F94 %29.87 in4.0 miENE (60°)19.6 mph24.2 mphRainRain
10:26 PM75.2 °F73.4 °F94 %29.87 in2.5 miENE (60°)18.4 mph24.2 mphRainRain
10:28 PM75.2 °F73.4 °F94 %29.87 in2.0 miENE (60°)20.7 mph25.3 mphRainLight Rain
10:34 PM73.4 °F73.4 °F100 %29.87 in2.0 miNE (50°)17.3 mph25.3 mphRainRain
10:36 PM73.4 °F73.4 °F100 %29.87 in2.5 miNE (50°)15.0 mph25.3 mphRainRain
10:37 PM73.4 °F73.4 °F100 %29.87 in2.5 miNE (50°)13.8 mphRainRain
10:39 PM73.4 °F73.4 °F100 %29.87 in3.0 miENE (60°)13.8 mphRainLight Rain
10:45 PM73.4 °F73.4 °F100 %29.87 in2.5 miENE (60°)20.7 mphRainLight Rain
10:52 PM73.4 °F73.4 °F100 %29.87 in3.0 miENE (60°)19.6 mphRainRain
10:55 PM73.8 °F72.9 °F97 %29.87 in3.0 miENE (60°)16.1 mph24.2 mph0.00 inRainLight Rain
11:02 PM73.4 °F73.4 °F100 %29.87 in3.0 miENE (70°)17.3 mphRainLight Rain
11:07 PM73.4 °F71.6 °F94 %29.87 in3.0 miENE (70°)12.7 mphRainLight Rain
11:08 PM73.4 °F71.6 °F94 %29.87 in3.0 miENE (70°)11.5 mphLight Drizzle
11:21 PM73.4 °F71.6 °F94 %29.87 in7.0 miENE (70°)9.2 mphOvercast
11:44 PM73.4 °F73.4 °F100 %29.87 in10.0 miNE (50°)6.9 mphOvercast
11:45 PM73.4 °F73.4 °F100 %29.87 in10.0 miNE (50°)6.9 mphOvercast
11:55 PM73.9 °F72.7 °F96 %29.86 in10.0 miNE (50°)5.8 mph0.00 inOvercast
Hourly data recorded from PGUA, located miles away from Inarajan, Guam







STORIES FROM OUR PARTNERS